This demonstration page uses our WeatherBlox Daily Observations layout. Learn more.

Left ArrowRight Arrow

39.51506, -84.39828

Hourly Observations for February 8, 2018

Temp ( °F °C ) Dew Point ( °F °C ) Humidity (%) Winds ( mph kmh ) Pressure ( in mb ) Visibility ( mi km ) Precip ( " mm )
12:15 am 00:15 Clear 22 -5.5 13 -10.3 69 69 NW 6 9 30.50 1033 10 16 0.00 0.00
12:35 am 00:35 Clear 22 -5.7 14 -9.8 73 73 NW 9 15 30.48 1032 10 16 0.00 0.00
12:55 am 00:55 Clear 21 -6 13 -10.4 71 71 WNW 10 17 30.50 1033 10 16 0.00 0.00
1:15 am 01:15 Clear 21 -6.3 14 -10.2 74 74 WNW 10 17 30.50 1033 10 16 0.00 0.00
1:35 am 01:35 Clear 19 -7.3 13 -10.7 77 77 W 8 13 30.50 1033 10 16 0.00 0.00
1:55 am 01:55 Clear 18 -7.9 11 -11.4 76 76 WNW 6 9 30.50 1033 10 16 0.00 0.00
2:15 am 02:15 Clear 17 -8.1 11 -11.8 75 75 WNW 7 11 30.50 1033 10 16 0.00 0.00
2:35 am 02:35 Clear 16 -8.8 10 -12.2 77 77 W 5 7 30.50 1033 10 16 0.00 0.00
2:55 am 02:55 Clear 15 -9.5 9 -12.7 78 78 W 3 6 30.50 1033 10 16 0.00 0.00
3:15 am 03:15 Clear 15 -9.6 10 -12.5 80 80 Calm 30.50 1033 10 16 0.00 0.00
3:35 am 03:35 Clear 14 -10.2 8 -13.1 80 80 Calm 30.50 1033 10 16 0.00 0.00
3:55 am 03:55 Clear 15 -9.6 9 -12.7 78 78 Calm 30.50 1033 10 16 0.00 0.00
4:15 am 04:15 Clear 11 -11.6 8 -13.6 85 85 Calm 30.50 1033 10 16 0.00 0.00
4:35 am 04:35 Clear 11 -11.6 9 -12.6 92 92 Calm 30.50 1033 7 11 0.00 0.00
4:55 am 04:55 Clear 8 -13.6 6 -14.7 92 92 Calm 30.53 1034 7 11 0.00 0.00
5:15 am 05:15 Clear 8 -13.6 5 -15 89 89 SW 3 6 30.56 1035 7 11 0.00 0.00
5:35 am 05:35 Clear 10 -12.5 7 -13.8 90 90 Calm 30.53 1034 5 8 0.00 0.00
5:55 am 05:55 Mostly Cloudy 8 -13.1 6 -14.4 90 90 Calm 30.56 1035 2 2 0.00 0.00
6:15 am 06:15 Cloudy 8 -13.1 6 -14.5 89 89 Calm 30.56 1035 7 11 0.00 0.00
6:35 am 06:35 Cloudy 6 -14.2 3 -15.9 87 87 Calm 30.59 1036 7 11 0.00 0.00
6:55 am 06:55 Cloudy 8 -13.3 5 -14.9 88 88 Calm 30.59 1036 5 8 0.00 0.00
7:15 am 07:15 Cloudy 7 -13.7 4 -15.3 88 88 Calm 30.59 1036 7 11 0.00 0.00
7:35 am 07:35 Cloudy 7 -13.8 4 -15.4 88 88 Calm 30.59 1036 5 8 0.00 0.00
7:55 am 07:55 Sunny 6 -14.3 3 -16.1 86 86 Calm 30.59 1036 5 8 0.00 0.00
8:15 am 08:15 Sunny 7 -13.9 4 -15.5 88 88 Calm 30.59 1036 7 11 0.00 0.00
8:35 am 08:35 Cloudy 9 -12.9 6 -14.5 88 88 Calm 30.59 1036 5 8 0.00 0.00
8:55 am 08:55 Cloudy 12 -11.3 9 -12.7 90 90 Calm 30.56 1035 5 8 0.00 0.00
9:15 am 09:15 Cloudy 13 -10.5 11 -11.9 90 90 Calm 30.59 1036 7 11 0.00 0.00
9:35 am 09:35 Cloudy 17 -8.6 14 -10 90 90 WSW 5 7 30.59 1036 10 16 0.00 0.00
9:55 am 09:55 Cloudy 18 -7.9 14 -9.9 86 86 W 9 15 30.59 1036 10 16 0.00 0.00
10:15 am 10:15 Cloudy 19 -7.2 12 -11.3 73 73 W 9 15 30.59 1036 10 16 0.00 0.00
10:35 am 10:35 Cloudy 20 -6.9 12 -11 73 73 WSW 9 15 30.59 1036 10 16 0.00 0.00
10:55 am 10:55 Mostly Cloudy 21 -6.2 13 -10.8 70 70 WSW 12 19 30.59 1036 10 16 0.00 0.00
11:15 am 11:15 Mostly Cloudy 22 -5.8 12 -11 67 67 SW 9 15 30.59 1036 10 16 0.00 0.00
11:35 am 11:35 Partly Cloudy 22 -5.4 12 -11.1 65 65 WSW 8 13 30.59 1036 10 16 0.00 0.00
11:55 am 11:55 Cloudy 23 -5 11 -11.7 60 60 WSW 12 19 30.59 1036 10 16 0.00 0.00
12:15 pm 12:15 Cloudy with Light Snow 24 -4.3 11 -11.4 58 58 SW 10 17 30.56 1035 10 16 0.00 0.00
12:35 pm 12:35 Partly Cloudy 25 -4.1 10 -12.2 54 54 WSW 12 19 30.56 1035 10 16 0.00 0.00
12:55 pm 12:55 Sunny 25 -3.9 12 -11 58 58 SSW 8 13 30.56 1035 10 16 0.00 0.00
1:15 pm 13:15 Sunny 26 -3.6 13 -10.8 58 58 SSW 10 17 30.53 1034 10 16 0.00 0.00
1:35 pm 13:35 Sunny 26 -3.1 13 -10.8 56 56 SW 8 13 30.53 1034 10 16 0.00 0.00
1:55 pm 13:55 Cloudy 26 -3.1 12 -11.2 54 54 S 3 6 30.53 1034 10 16 0.00 0.00
2:15 pm 14:15 Cloudy 27 -2.6 13 -10.7 54 54 WSW 9 15 30.48 1032 10 16 0.00 0.00
2:35 pm 14:35 Cloudy 28 -2.3 12 -11 52 52 SW 8 13 30.48 1032 10 16 0.00 0.00
2:55 pm 14:55 Mostly Cloudy 29 -1.9 13 -10.8 51 51 WNW 6 9 30.48 1032 10 16 0.00 0.00
3:15 pm 15:15 Sunny 29 -1.7 9 -12.7 43 43 WSW 9 15 30.48 1032 10 16 0.00 0.00
3:35 pm 15:35 Sunny 29 -1.5 10 -12.4 44 44 W 9 15 30.48 1032 10 16 0.00 0.00
3:55 pm 15:55 Sunny 29 -1.5 10 -12.5 43 43 W 10 17 30.48 1032 10 16 0.00 0.00
4:15 pm 16:15 Cloudy 29 -1.8 10 -12.3 45 45 WSW 9 15 30.48 1032 10 16 0.00 0.00
4:35 pm 16:35 Mostly Cloudy 29 -1.7 10 -12.2 45 45 W 8 13 30.48 1032 10 16 0.00 0.00
4:55 pm 16:55 Mostly Cloudy 28 -2.2 11 -11.8 48 48 W 7 11 30.48 1032 10 16 0.00 0.00
5:15 pm 17:15 Cloudy 29 -1.8 11 -11.7 47 47 W 7 11 30.48 1032 10 16 0.00 0.00
5:35 pm 17:35 Cloudy 29 -1.9 10 -12 46 46 W 7 11 30.48 1032 10 16 0.00 0.00
5:55 pm 17:55 Cloudy 28 -2 12 -11.2 50 50 SW 6 9 30.48 1032 10 16 0.00 0.00
6:15 pm 18:15 Cloudy 28 -2 12 -11 51 51 WSW 3 6 30.48 1032 10 16 0.00 0.00
6:35 pm 18:35 Cloudy 29 -1.8 12 -11 50 50 Calm 30.50 1033 10 16 0.00 0.00
6:55 pm 18:55 Cloudy 29 -1.9 13 -10.7 51 51 W 3 6 30.50 1033 10 16 0.00 0.00
7:15 pm 19:15 Cloudy 28 -2 13 -10.5 53 53 Calm 30.48 1032 10 16 0.00 0.00
7:35 pm 19:35 Cloudy 29 -1.9 13 -10.7 51 51 Calm 30.48 1032 10 16 0.00 0.00
7:55 pm 19:55 Cloudy 28 -2.1 14 -9.8 56 56 Calm 30.48 1032 10 16 0.00 0.00
8:15 pm 20:15 Partly Cloudy 28 -2.1 12 -10.9 51 51 Calm 30.48 1032 10 16 0.00 0.00
8:35 pm 20:35 Clear 28 -2.3 13 -10.4 54 54 S 3 6 30.48 1032 10 16 0.00 0.00
8:55 pm 20:55 Clear 24 -4.4 13 -10.3 64 64 Calm 30.48 1032 10 16 0.00 0.00
9:15 pm 21:15 Clear 23 -5.1 16 -9 74 74 Calm 30.48 1032 10 16 0.00 0.00
9:35 pm 21:35 Cloudy 26 -3.2 18 -7.7 71 71 Calm 30.45 1031 10 16 0.00 0.00
9:55 pm 21:55 Cloudy 24 -4.2 16 -8.8 71 71 Calm 30.48 1032 10 16 0.00 0.00
10:15 pm 22:15 Mostly Cloudy 25 -3.9 17 -8.3 72 72 SSE 3 6 30.48 1032 10 16 0.00 0.00
10:35 pm 22:35 Cloudy 26 -3.3 20 -6.9 76 76 Calm 30.45 1031 10 16 0.00 0.00
10:55 pm 22:55 Cloudy 26 -3.6 19 -7.4 75 75 N 3 6 30.48 1032 10 16 0.00 0.00
11:15 pm 23:15 Cloudy 26 -3.5 19 -7.4 75 75 Calm 30.45 1031 10 16 0.00 0.00
11:35 pm 23:35 Cloudy 25 -3.7 19 -7.1 78 78 Calm 30.48 1032 10 16 0.00 0.00
11:55 pm 23:55 Cloudy 26 -3.4 19 -7 76 76 Calm 30.45 1031 10 16 0.00 0.00

Powered by AerisWeather